Location: Limerick
(52.6650°N, 8.6230°W)
Time: 14:28:17
(UTC+01:00)

ISS - Visible Passes

Search period start: 17 July 2025 00:00
Search period end: 27 July 2025 00:00
Orbit: 415 x 418 km, 51.6° (Epoch: 17 July)

Date Brightness Start Highest point End Pass type
(mag) Time Alt. Az. Time Alt. Az. Time Alt. Az.
17 Jul -2.6 00:55:37 10° W 00:58:16 27° SW 00:58:16 27° SW visible
17 Jul -3.8 22:30:26 10° W 22:33:47 74° S 22:37:08 10° E visible
18 Jul -3.1 00:07:13 10° W 00:10:20 36° SSW 00:11:23 28° SSE visible
18 Jul -3.4 23:18:52 10° W 23:22:06 47° SSW 23:24:31 16° SE visible
19 Jul -1.5 00:56:21 10° WSW 00:57:24 13° WSW 00:57:24 13° WSW visible
19 Jul -3.6 22:30:31 10° W 22:33:50 58° SSW 22:37:07 10° ESE visible
20 Jul -2.2 00:07:35 10° W 00:10:09 20° SSW 00:10:34 20° SSW visible
20 Jul -2.5 23:19:03 10° W 23:21:58 28° SSW 23:23:46 17° SSE visible
21 Jul -2.9 22:30:37 10° W 22:33:44 37° SSW 22:36:52 10° SE visible
22 Jul -1.3 00:09:10 10° SW 00:09:46 10° SW 00:09:54 10° SW visible
22 Jul -1.6 23:19:37 10° WSW 23:21:40 15° SW 23:23:10 12° S visible
23 Jul -2.0 22:30:51 10° W 22:33:29 21° SSW 22:36:06 10° SSE visible
25 Jul -1.2 22:32:03 10° WSW 22:33:01 11° SW 22:33:59 10° SSW visible
